{"data":{"norad_id":62212,"epoch":"2026-09-21T08:34:47.370144Z","epoch_age_seconds":104128,"freshness":"FRESH","line1":"1 62212U 24229W   26264.35749271  .00008877  00000+0  33205-3 0  9995","line2":"2 62212  43.0021 242.4568 0003031 279.0149  81.0359 15.27545332100526","mean_motion":15.27545332,"eccentricity":0.0003031,"inclination_deg":43.0021,"raan_deg":242.4568,"arg_perigee_deg":279.0149,"mean_anomaly_deg":81.0359,"bstar":0.00033205,"rev_number":10052,"period_min":94.268888119649,"perigee_km":481.07324949604,"apogee_km":485.23256343734,"semimajor_km":6861.2899064667,"source":"CELESTRAK","updated_at":"2026-09-22T09:00:49.543216Z"}}